Weather Roundup
Issued by NWS

Home | Current Version | Previous Version | Graphics & Text | Print | Product List | Glossary Off
Versions: 1 2 3 4 5 6 7 8 9 10 11 12 13 14 15 16 17 18 19 20 21 22 23 24 25 26 27 28 29 30 31 32 33 34 35 36 37 38 39 40 41 42 43 44 45 46 47 48 49 50

000
NZUS93 KARX 242359
HRRWXR

CURRENT HOURLY OBSERVATIONS ACROSS
MUCH OF THE UPPER MISSISSIPPI VALLEY
NATIONAL WEATHER SERVICE LA CROSSE WI
700 PM CDT SAT JUN 24 2017


...SOUTHEAST MINNESOTA...


CITY           SKY/WX    TMP DP  RH WIND       PRES   REMARKS
ROCHESTER      MOSUNNY   62  47  57 NW17      30.05S
ROCHESTER/MAYO FAIR      61  42  49 NW14G31   30.04R
WINONA         MOSUNNY   55  46  71 W5        30.03S
AUSTIN         MOSUNNY   63  45  51 NW18      30.05R
ALBERT LEA     MOSUNNY   64  43  45 NW8G20    30.06R
DODGE CENTER   SUNNY     61  43  51 NW18G26   30.05R
PRESTON        SUNNY     58  47  65 NW8       30.05S
OWATONNA       MOSUNNY   63  46  55 NW14      30.06R
FARIBAULT      PTSUNNY   63  45  51 NW12G17   30.06S
$$

...ELSEWHERE IN MINNESOTA...


CITY           SKY/WX    TMP DP  RH WIND       PRES   REMARKS
MINNEAPOLIS    PTSUNNY   63  43  48 NW15G25   30.03R
INTNL FALLS    CLOUDY    60  49  66 N12       29.98R
DULUTH         CLOUDY    59  46  62 W10       29.96S
RED WING       SUNNY     64  39  39 W10G22    30.00F
REDWOOD FALLS  PTSUNNY   64  40  41 NW17      30.08S
MANKATO        CLOUDY    63  41  44 NW21G26   30.07R
WORTHINGTON    MOSUNNY   64  40  41 NW18G29   30.13R
FAIRMONT       MOSUNNY   65  41  41 NW17      30.10R
$$

...SOUTHWEST WISCONSIN...


CITY           SKY/WX    TMP DP  RH WIND       PRES   REMARKS
LA CROSSE      MOSUNNY   60  51  72 SW9       30.03R
PRAIRIE DU CHI LGT RAIN  58  53  82 NW13G18   30.06R
BOSCOBEL       LGT RAIN  58  54  86 CALM      30.06R
LONE ROCK      NOT AVBL
PLATTEVILLE    PTSUNNY   57  54  92 N6        30.05S
FORT MC COY    RAIN      52  49  90 W9G18     30.06R
CAMP DOUGLAS   RAIN      54  50  87 W18G31    30.04R FOG
MAUSTON-NEW LI CLOUDY    55  50  82 SW8       30.00R
VIROQUA        CLOUDY    52  48  84 NW10G24   30.07R
WIS DELLS      PTSUNNY   58  46  62 W7        30.00F
$$

...ELSEWHERE IN WISCONSIN...


CITY           SKY/WX    TMP DP  RH WIND       PRES   REMARKS
MILWAUKEE      MOSUNNY   71  42  35 W17G23    29.98R
MADISON        LGT RAIN  55  51  86 S8        30.02R
GREEN BAY      MOSUNNY   67  46  47 W15       29.92R
EAU CLAIRE     NOT AVBL
BLACK RVR FLS  CLOUDY    56  45  65 SW6       30.00S
MEDFORD        MOSUNNY   60  43  54 W13G20    29.96R
WAUSAU         PTSUNNY   61  44  53 W10       29.93S
WIS RAPIDS     CLOUDY    63  45  51 NW7       29.97S
MARSHFIELD     LGT RAIN  57  48  72 NW8       29.96R
RICE LAKE      SUNNY     63  44  50 W10       29.99S
$$

...NORTHEAST IOWA...


CITY           SKY/WX    TMP DP  RH WIND       PRES   REMARKS
WATERLOO       MOSUNNY   71  41  33 NW26G32   30.02R
DUBUQUE        PTSUNNY   58  53  84 NE12      30.04F
DECORAH        MOSUNNY   59  52  77 VRB7      30.04S
MASON CITY     SUNNY     67  39  35 NW20G32   30.08R
CHARLES CITY   MOSUNNY   66  43  42 NW21G31   30.05R
OELWEIN        MOSUNNY   68  52  56 NW16G22   30.04R
$$

...ELSEWHERE IN IOWA...


CITY           SKY/WX    TMP DP  RH WIND       PRES   REMARKS
DES MOINES     MOSUNNY   78  38  23 NW18      30.06S
IOWA CITY      CLOUDY    75  45  34 W14       30.04F
FORT DODGE     SUNNY     70  41  35 NW13G21   30.09S
MARSHALLTOWN   MOSUNNY   72  43  35 NW18G29   30.04S
CEDAR RAPIDS   CLOUDY    71  45  39 W14       30.02S
$$

...NORTHERN ILLINOIS...


CITY           SKY/WX    TMP DP  RH WIND       PRES   REMARKS
CHICAGO-OHARE  MOSUNNY   71  40  32 NW22      30.00R
CHICAGO-MIDWAY MOSUNNY   72  42  34 W16G25    30.01R
MOLINE         SUNNY     74  43  32 W10       30.04F
ROCKFORD       MOSUNNY   69  42  37 W10       30.03R
PEORIA         SUNNY     73  42  32 NW8       30.08S
$$

NOTE: "FAIR" INDICATES FEW OR NO CLOUDS BELOW 12,000 FEET WITH NO
SIGNIFICANT WEATHER AND/OR OBSTRUCTIONS TO VISIBILITY. WIND
SPEEDS ARE IN MILES-PER-HOUR.




USA.gov is the U.S. government's official web portal to all federal, state and local government web resources and services.